.
WxDataArchive / Data Records for 2014-12-24
2014-12-23 December 2014 2014-12-25

Data Records for Wednesday, 24 December 2014

Time	Temp	Chill	HIndex	Humid	Dewpt	 Wind 	HiWind	WindDir	Rain 	Barom
-----	----	-----	------	-----	-----	------	------	-------	-----	-----
00:00	46.0	46.0	46.0	91	43.5	0	1	248	0.00	29.679 
00:05	46.0	46.0	46.0	91	43.5	0	2	248	0.01	29.679 
00:10	46.0	46.0	46.0	91	43.5	1	3	248	0.00	29.679 
00:15	45.8	45.8	45.8	91	43.3	0	1	248	0.00	29.676 
00:20	45.8	45.8	45.8	92	43.6	0	1	248	0.00	29.676 
00:25	45.8	45.8	45.8	92	43.6	0	2	248	0.01	29.676 
00:30	45.8	45.8	45.8	92	43.6	0	2	248	0.00	29.675 
00:35	45.8	45.8	45.8	92	43.6	0	2	248	0.01	29.675 
00:40	45.7	45.7	45.7	92	43.5	1	3	248	0.01	29.675 
00:45	45.7	45.7	45.7	92	43.5	1	3	248	0.00	29.664 
00:50	45.7	45.7	45.7	93	43.8	0	3	248	0.00	29.664 
00:55	45.5	45.5	45.5	93	43.6	0	2	315	0.00	29.664 
01:00	45.5	45.5	45.5	93	43.6	1	5	315	0.00	29.662 
01:05	45.4	45.4	45.4	93	43.5	0	3	338	0.00	29.662 
01:10	45.4	45.4	45.4	93	43.5	0	3	338	0.01	29.662 
01:15	45.2	45.2	45.2	93	43.3	1	3	338	0.00	29.643 
01:20	45.1	45.1	45.1	93	43.2	0	3	338	0.00	29.643 
01:25	44.9	44.9	44.9	93	43.0	1	3	22	0.00	29.643 
01:30	44.8	44.8	44.8	93	42.9	1	4	338	0.00	29.630 
01:35	44.6	44.6	44.6	93	42.7	1	4	0	0.00	29.630 
01:40	44.6	44.6	44.6	93	42.7	1	4	338	0.00	29.630 
01:45	44.5	44.5	44.5	93	42.6	0	3	338	0.00	29.629 
01:50	44.5	44.5	44.5	93	42.6	1	5	338	0.00	29.629 
01:55	44.3	44.3	44.3	93	42.4	1	4	0	0.00	29.629 
02:00	44.2	44.2	44.2	94	42.6	1	7	315	0.00	29.613 
02:05	44.1	44.1	44.1	94	42.5	1	4	270	0.00	29.613 
02:10	44.1	44.1	44.1	94	42.5	1	3	315	0.01	29.613 
02:15	43.9	43.9	43.9	94	42.3	1	4	270	0.00	29.624 
02:20	43.9	43.9	43.9	94	42.3	0	3	338	0.00	29.624 
02:25	43.8	43.8	43.8	94	42.2	1	5	338	0.00	29.624 
02:30	43.6	43.6	43.6	94	42.0	2	6	0	0.00	29.626 
02:35	43.5	43.5	43.5	94	41.9	1	5	0	0.00	29.626 
02:40	43.3	43.3	43.3	94	41.7	1	5	338	0.00	29.626 
02:45	43.3	43.3	43.3	94	41.7	0	2	338	0.01	29.627 
02:50	43.2	43.2	43.2	94	41.6	0	2	338	0.00	29.627 
02:55	43.1	43.1	43.1	94	41.5	1	7	338	0.00	29.627 
03:00	42.9	42.9	42.9	94	41.3	0	2	338	0.00	29.624 
03:05	42.9	42.9	42.9	94	41.3	1	5	338	0.00	29.624 
03:10	42.8	42.8	42.8	94	41.2	1	6	292	0.00	29.624 
03:15	42.6	42.6	42.6	94	41.0	1	4	0	0.00	29.613 
03:20	42.6	42.6	42.6	94	41.0	1	5	270	0.00	29.613 
03:25	42.5	42.5	42.5	94	40.9	1	5	338	0.00	29.613 
03:30	42.5	42.5	42.5	94	40.9	1	5	292	0.00	29.611 
03:35	42.3	42.3	42.3	94	40.7	1	3	315	0.00	29.611 
03:40	42.3	42.3	42.3	94	40.7	1	3	315	0.00	29.611 
03:45	42.3	42.3	42.3	94	40.7	1	6	338	0.00	29.607 
03:50	42.3	42.3	42.3	94	40.7	1	5	315	0.01	29.607 
03:55	42.2	42.2	42.2	94	40.6	1	4	338	0.00	29.607 
04:00	42.2	42.2	42.2	94	40.6	1	3	338	0.00	29.596 
04:05	42.2	42.2	42.2	94	40.6	0	2	315	0.00	29.596 
04:10	42.2	42.2	42.2	94	40.6	1	4	292	0.00	29.596 
04:15	42.2	42.2	42.2	94	40.6	1	5	338	0.01	29.590 
04:20	42.2	42.2	42.2	94	40.6	0	3	0	0.00	29.590 
04:25	42.1	42.1	42.1	94	40.5	0	4	292	0.00	29.590 
04:30	42.1	42.1	42.1	94	40.5	1	4	270	0.00	29.600 
04:35	42.1	42.1	42.1	94	40.5	0	2	22	0.00	29.600 
04:40	42.1	42.1	42.1	94	40.5	1	6	270	0.00	29.600 
04:45	42.1	42.1	42.1	94	40.5	0	3	338	0.00	29.596 
04:50	41.9	41.9	41.9	94	40.3	1	5	338	0.00	29.596 
04:55	41.9	41.9	41.9	94	40.3	1	4	0	0.00	29.596 
05:00	41.9	41.9	41.9	94	40.3	1	4	0	0.00	29.585 
05:05	41.9	41.9	41.9	94	40.3	1	5	338	0.00	29.585 
05:10	41.8	41.8	41.8	94	40.2	1	4	292	0.00	29.585 
05:15	41.8	41.8	41.8	94	40.2	1	5	338	0.00	29.583 
05:20	41.8	41.8	41.8	94	40.2	1	6	338	0.00	29.583 
05:25	41.6	41.6	41.6	94	40.0	1	4	315	0.00	29.583 
05:30	41.6	41.6	41.6	94	40.0	1	3	315	0.00	29.570 
05:35	41.6	41.6	41.6	94	40.0	1	6	0	0.00	29.570 
05:40	41.6	41.6	41.6	94	40.0	1	5	315	0.00	29.570 
05:45	41.6	41.6	41.6	94	40.0	1	4	315	0.00	29.569 
05:50	41.5	41.5	41.5	94	39.9	1	3	315	0.00	29.569 
05:55	41.5	41.5	41.5	94	39.9	1	4	315	0.00	29.569 
06:00	41.5	41.5	41.5	94	39.9	1	3	315	0.00	29.571 
06:05	41.5	41.5	41.5	94	39.9	1	4	315	0.00	29.571 
06:10	41.5	41.5	41.5	94	39.9	1	4	338	0.00	29.571 
06:15	41.3	41.3	41.3	94	39.7	1	4	338	0.00	29.562 
06:20	41.3	41.3	41.3	94	39.7	1	4	338	0.00	29.562 
06:25	41.3	41.3	41.3	94	39.7	2	4	315	0.00	29.562 
06:30	41.3	41.3	41.3	94	39.7	1	4	338	0.00	29.559 
06:35	41.3	41.3	41.3	94	39.7	1	4	270	0.00	29.559 
06:40	41.3	41.3	41.3	94	39.7	1	4	315	0.00	29.559 
06:45	41.3	41.3	41.3	94	39.7	1	4	315	0.00	29.560 
06:50	41.3	41.3	41.3	94	39.7	1	3	315	0.00	29.560 
06:55	41.3	41.3	41.3	94	39.7	1	3	315	0.00	29.560 
07:00	41.3	41.3	41.3	94	39.7	1	5	315	0.00	29.557 
07:05	41.3	41.3	41.3	94	39.7	1	4	315	0.00	29.557 
07:10	41.2	41.2	41.2	94	39.6	2	4	315	0.00	29.557 
07:15	41.2	41.2	41.2	94	39.6	1	3	292	0.00	29.543 
07:20	41.2	41.2	41.2	94	39.6	0	2	292	0.00	29.543 
07:25	41.3	41.3	41.3	94	39.7	1	3	292	0.00	29.543 
07:30	41.3	41.3	41.3	94	39.7	1	3	315	0.00	29.555 
07:35	41.3	41.3	41.3	94	39.7	0	2	315	0.00	29.555 
07:40	41.3	41.3	41.3	94	39.7	1	5	338	0.00	29.555 
07:45	41.3	41.3	41.3	94	39.7	1	3	338	0.00	29.543 
07:50	41.3	41.3	41.3	94	39.7	1	3	338	0.00	29.543 
07:55	41.3	41.3	41.3	94	39.7	0	2	338	0.00	29.543 
08:00	41.3	41.3	41.3	94	39.7	1	2	338	0.00	29.541 
08:05	41.3	41.3	41.3	94	39.7	0	2	338	0.00	29.541 
08:10	41.3	41.3	41.3	95	40.0	0	2	338	0.00	29.541 
08:15	41.3	41.3	41.3	95	40.0	0	1	338	0.00	29.543 
08:20	41.3	41.3	41.3	95	40.0	1	3	338	0.00	29.543 
08:25	41.3	41.3	41.3	95	40.0	0	3	338	0.00	29.543 
08:30	41.3	41.3	41.3	95	40.0	0	2	338	0.00	29.530 
08:35	41.3	41.3	41.3	95	40.0	0	3	338	0.00	29.530 
08:40	41.5	41.5	41.5	95	40.2	0	1	338	0.00	29.530 
08:45	41.5	41.5	41.5	95	40.2	0	0	---	0.00	29.526 
08:50	41.5	41.5	41.5	95	40.2	0	2	338	0.00	29.526 
08:55	41.5	41.5	41.5	95	40.2	0	2	338	0.00	29.526 
09:00	41.5	41.5	41.5	95	40.2	0	2	338	0.00	29.517 
09:05	41.5	41.5	41.5	95	40.2	0	1	338	0.00	29.517 
09:10	41.5	41.5	41.5	95	40.2	0	2	338	0.00	29.517 
09:15	41.5	41.5	41.5	95	40.2	1	2	338	0.00	29.512 
09:20	41.5	41.5	41.5	95	40.2	0	1	338	0.00	29.512 
09:25	41.6	41.6	41.6	95	40.3	0	3	338	0.00	29.512 
09:30	41.6	41.6	41.6	95	40.3	0	1	338	0.00	29.503 
09:35	41.6	41.6	41.6	95	40.3	0	1	338	0.00	29.503 
09:40	41.6	41.6	41.6	95	40.3	0	0	---	0.00	29.503 
09:45	41.6	41.6	41.6	95	40.3	0	1	338	0.00	29.502 
09:50	41.6	41.6	41.6	95	40.3	0	1	338	0.00	29.502 
09:55	41.8	41.8	41.8	95	40.5	0	0	---	0.00	29.502 
10:00	41.8	41.8	41.8	95	40.5	0	0	---	0.00	29.500 
10:05	41.8	41.8	41.8	95	40.5	0	0	---	0.00	29.500 
10:10	41.8	41.8	41.8	95	40.5	0	1	338	0.00	29.500 
10:15	41.9	41.9	41.9	95	40.6	0	1	338	0.01	29.495 
10:20	41.9	41.9	41.9	95	40.6	0	2	338	0.00	29.495 
10:25	41.9	41.9	41.9	95	40.6	0	3	338	0.01	29.495 
10:30	41.9	41.9	41.9	95	40.6	0	1	338	0.00	29.496 
10:35	41.9	41.9	41.9	95	40.6	0	2	338	0.00	29.496 
10:40	41.9	41.9	41.9	95	40.6	0	2	338	0.00	29.496 
10:45	41.9	41.9	41.9	95	40.6	0	2	338	0.00	29.493 
10:50	41.9	41.9	41.9	95	40.6	0	2	338	0.00	29.493 
10:55	41.9	41.9	41.9	95	40.6	1	2	338	0.00	29.493 
11:00	41.8	41.8	41.8	95	40.5	1	3	315	0.01	29.494 
11:05	41.8	41.8	41.8	95	40.5	2	4	338	0.00	29.494 
11:10	41.8	41.8	41.8	95	40.5	1	3	338	0.00	29.494 
11:15	41.6	41.6	41.6	95	40.3	2	5	0	0.00	29.480 
11:20	41.6	41.6	41.6	95	40.3	1	3	338	0.01	29.480 
11:25	41.6	41.6	41.6	95	40.3	2	4	315	0.00	29.480 
11:30	41.6	41.6	41.6	95	40.3	2	5	270	0.01	29.471 
11:35	41.6	41.6	41.6	95	40.3	2	7	270	0.00	29.471 
11:40	41.5	41.5	41.5	95	40.2	2	4	292	0.01	29.471 
11:45	41.5	41.5	41.5	95	40.2	2	4	315	0.01	29.471 
11:50	41.5	41.5	41.5	95	40.2	2	6	292	0.01	29.471 
11:55	41.3	41.3	41.3	95	40.0	1	6	292	0.01	29.471 
12:00	41.3	41.3	41.3	95	40.0	1	4	292	0.01	29.467 
12:05	41.3	41.3	41.3	95	40.0	1	3	292	0.02	29.467 
12:10	41.2	41.2	41.2	95	39.9	1	5	292	0.01	29.467 
12:15	41.2	41.2	41.2	95	39.9	1	3	338	0.01	29.434 
12:20	41.2	41.2	41.2	95	39.9	1	3	338	0.01	29.434 
12:25	41.2	41.2	41.2	95	39.9	2	5	338	0.00	29.434 
12:30	41.2	41.2	41.2	95	39.9	2	5	338	0.01	29.419 
12:35	41.2	41.2	41.2	95	39.9	1	4	338	0.01	29.419 
12:40	41.2	41.2	41.2	95	39.9	2	6	338	0.00	29.419 
12:45	41.3	41.3	41.3	95	40.0	2	6	315	0.00	29.401 
12:50	41.5	41.5	41.5	95	40.2	1	4	0	0.00	29.401 
12:55	41.6	41.6	41.6	95	40.3	2	4	270	0.00	29.401 
13:00	41.5	41.5	41.5	95	40.2	2	10	338	0.00	29.375 
13:05	41.5	41.5	41.5	95	40.2	0	3	338	0.00	29.375 
13:10	41.6	41.6	41.6	95	40.3	2	6	338	0.00	29.375 
13:15	41.6	41.6	41.6	95	40.3	1	6	68	0.00	29.355 
13:20	41.6	41.6	41.6	95	40.3	1	4	0	0.00	29.355 
13:25	41.6	41.6	41.6	95	40.3	1	3	68	0.00	29.355 
13:30	41.6	41.6	41.6	95	40.3	1	5	22	0.00	29.357 
13:35	41.5	41.5	41.5	95	40.2	0	4	338	0.00	29.357 
13:40	41.5	41.5	41.5	95	40.2	1	4	338	0.00	29.357 
13:45	41.5	41.5	41.5	95	40.2	0	3	0	0.00	29.342 
13:50	41.6	41.6	41.6	95	40.3	1	5	0	0.00	29.342 
13:55	41.5	41.5	41.5	95	40.2	1	4	0	0.00	29.342 
14:00	41.5	41.5	41.5	94	39.9	0	2	338	0.00	29.341 
14:05	41.5	41.5	41.5	94	39.9	0	2	338	0.00	29.341 
14:10	41.5	41.5	41.5	94	39.9	0	1	338	0.00	29.341 
14:15	41.3	41.3	41.3	94	39.7	0	3	338	0.01	29.343 
14:20	41.2	41.2	41.2	94	39.6	1	3	338	0.00	29.343 
14:25	41.2	41.2	41.2	94	39.6	1	3	338	0.01	29.343 
14:30	41.2	41.2	41.2	94	39.6	0	4	338	0.00	29.327 
14:35	41.2	41.2	41.2	94	39.6	0	3	338	0.01	29.327 
14:40	41.2	41.2	41.2	94	39.6	0	1	338	0.00	29.327 
14:45	41.1	41.1	41.1	94	39.5	0	2	338	0.00	29.377 
14:50	41.1	41.1	41.1	94	39.5	0	2	338	0.01	29.377 
14:55	40.9	40.9	40.9	94	39.3	0	1	338	0.02	29.377 
15:00	40.9	40.9	40.9	94	39.3	0	2	338	0.01	29.364 
15:05	40.9	40.9	40.9	94	39.3	0	2	338	0.01	29.364 
15:10	40.8	40.8	40.8	94	39.2	2	5	292	0.00	29.364 
15:15	40.6	40.6	40.6	94	39.0	0	2	338	0.00	29.345 
15:20	40.6	40.6	40.6	94	39.0	1	3	338	0.00	29.345 
15:25	40.6	40.6	40.6	94	39.0	1	3	315	0.01	29.345 
15:30	40.6	40.6	40.6	94	39.0	1	4	292	0.00	29.345 
15:35	40.5	40.5	40.5	94	38.9	1	4	292	0.00	29.345 
15:40	40.5	40.5	40.5	94	38.9	1	4	270	0.01	29.345 
15:45	40.3	40.3	40.3	94	38.7	1	3	292	0.00	29.345 
15:50	40.3	40.3	40.3	94	38.7	1	6	292	0.00	29.345 
15:55	40.3	40.3	40.3	94	38.7	1	3	270	0.00	29.345 
16:00	40.1	40.1	40.1	94	38.5	2	6	292	0.00	29.359 
16:05	40.1	40.1	40.1	94	38.5	0	3	292	0.00	29.359 
16:10	40.1	40.1	40.1	94	38.5	1	4	292	0.00	29.359 
16:15	40.1	40.1	40.1	94	38.5	2	4	292	0.00	29.373 
16:20	39.9	39.9	39.9	94	38.3	0	2	292	0.00	29.373 
16:25	39.9	39.9	39.9	94	38.3	1	5	338	0.01	29.373 
16:30	39.8	39.8	39.8	94	38.2	1	3	270	0.00	29.374 
16:35	39.6	39.6	39.6	94	38.0	2	5	270	0.00	29.374 
16:40	39.3	39.3	39.3	94	37.7	2	5	270	0.00	29.374 
16:45	38.9	36.0	38.9	94	37.3	4	7	270	0.00	29.375 
16:50	38.5	35.6	38.5	93	36.7	4	8	270	0.00	29.375 
16:55	38.2	38.2	38.2	93	36.4	3	7	270	0.00	29.375 
17:00	38.0	38.0	38.0	93	36.2	3	6	270	0.00	29.377 
17:05	38.0	38.0	38.0	93	36.2	3	7	270	0.00	29.377 
17:10	37.9	37.9	37.9	93	36.1	2	5	270	0.00	29.377 
17:15	37.9	37.9	37.9	93	36.1	3	7	270	0.00	29.383 
17:20	37.8	37.8	37.8	93	36.0	3	5	270	0.00	29.383 
17:25	37.8	37.8	37.8	93	36.0	2	4	292	0.00	29.383 
17:30	37.8	37.8	37.8	93	36.0	2	5	270	0.01	29.405 
17:35	37.8	37.8	37.8	93	36.0	3	6	270	0.00	29.405 
17:40	37.8	37.8	37.8	93	36.0	2	6	270	0.00	29.405 
17:45	37.8	37.8	37.8	93	36.0	3	8	270	0.00	29.423 
17:50	37.8	37.8	37.8	93	36.0	2	9	270	0.00	29.423 
17:55	37.8	37.8	37.8	93	36.0	2	5	270	0.00	29.423 
18:00	37.6	37.6	37.6	93	35.8	3	5	270	0.00	29.437 
18:05	37.6	37.6	37.6	93	35.8	2	4	270	0.00	29.437 
18:10	37.6	37.6	37.6	93	35.8	3	7	292	0.01	29.437 
18:15	37.8	37.8	37.8	93	36.0	2	6	292	0.00	29.447 
18:20	37.8	37.8	37.8	93	36.0	2	4	270	0.00	29.447 
18:25	37.8	37.8	37.8	93	36.0	3	6	270	0.00	29.447 
18:30	37.6	37.6	37.6	93	35.8	3	8	270	0.00	29.458 
18:35	37.5	37.5	37.5	93	35.7	3	6	270	0.00	29.458 
18:40	37.3	37.3	37.3	93	35.5	3	6	248	0.00	29.458 
18:45	37.2	37.2	37.2	93	35.4	2	6	248	0.00	29.474 
18:50	37.0	37.0	37.0	92	34.9	3	6	270	0.00	29.474 
18:55	36.9	36.9	36.9	92	34.8	3	6	248	0.00	29.474 
19:00	36.8	36.8	36.8	93	35.0	2	6	270	0.00	29.485 
19:05	36.8	36.8	36.8	93	35.0	2	4	270	0.00	29.485 
19:10	36.8	36.8	36.8	93	35.0	1	4	270	0.00	29.485 
19:15	36.8	36.8	36.8	93	35.0	1	3	248	0.01	29.491 
19:20	36.8	36.8	36.8	93	35.0	1	4	248	0.00	29.491 
19:25	36.8	36.8	36.8	93	35.0	2	4	248	0.00	29.491 
19:30	36.8	36.8	36.8	93	35.0	2	4	270	0.00	29.497 
19:35	36.8	36.8	36.8	93	35.0	2	4	248	0.00	29.497 
19:40	36.8	36.8	36.8	93	35.0	2	5	270	0.00	29.497 
19:45	36.8	36.8	36.8	93	35.0	1	4	270	0.00	29.505 
19:50	36.6	36.6	36.6	93	34.8	2	4	270	0.00	29.505 
19:55	36.6	36.6	36.6	93	34.8	2	5	292	0.00	29.505 
20:00	36.6	36.6	36.6	92	34.5	2	4	292	0.00	29.509 
20:05	36.5	36.5	36.5	92	34.4	2	5	270	0.00	29.509 
20:10	36.5	36.5	36.5	92	34.4	1	5	248	0.01	29.509 
20:15	36.5	36.5	36.5	92	34.4	1	4	248	0.00	29.518 
20:20	36.5	36.5	36.5	92	34.4	1	4	270	0.00	29.518 
20:25	36.5	36.5	36.5	92	34.4	1	3	270	0.00	29.518 
20:30	36.5	36.5	36.5	92	34.4	1	3	270	0.00	29.521 
20:35	36.5	36.5	36.5	92	34.4	1	5	270	0.00	29.521 
20:40	36.5	36.5	36.5	92	34.4	1	4	248	0.00	29.521 
20:45	36.5	36.5	36.5	92	34.4	2	6	248	0.00	29.532 
20:50	36.5	36.5	36.5	92	34.4	2	4	248	0.00	29.532 
20:55	36.5	36.5	36.5	92	34.4	2	5	248	0.00	29.532 
21:00	36.5	36.5	36.5	92	34.4	2	5	248	0.00	29.543 
21:05	36.5	36.5	36.5	92	34.4	1	4	248	0.00	29.543 
21:10	36.5	36.5	36.5	92	34.4	2	8	248	0.00	29.543 
21:15	36.5	36.5	36.5	92	34.4	1	4	248	0.00	29.549 
21:20	36.5	36.5	36.5	92	34.4	1	6	270	0.00	29.549 
21:25	36.5	36.5	36.5	92	34.4	2	6	248	0.00	29.549 
21:30	36.3	36.3	36.3	92	34.2	1	6	248	0.00	29.554 
21:35	36.3	36.3	36.3	92	34.2	2	6	248	0.00	29.554 
21:40	36.3	36.3	36.3	92	34.2	1	5	248	0.00	29.554 
21:45	36.3	36.3	36.3	92	34.2	3	6	248	0.00	29.556 
21:50	36.3	36.3	36.3	92	34.2	2	5	270	0.00	29.556 
21:55	36.3	36.3	36.3	92	34.2	2	11	270	0.00	29.556 
22:00	36.2	36.2	36.2	92	34.1	3	12	248	0.00	29.565 
22:05	36.2	36.2	36.2	91	33.8	2	9	248	0.00	29.565 
22:10	36.2	36.2	36.2	91	33.8	2	6	248	0.00	29.565 
22:15	36.2	36.2	36.2	91	33.8	2	7	248	0.00	29.571 
22:20	36.2	36.2	36.2	90	33.6	2	7	248	0.00	29.571 
22:25	36.2	36.2	36.2	90	33.6	2	5	248	0.00	29.571 
22:30	36.2	36.2	36.2	90	33.6	2	5	248	0.00	29.574 
22:35	36.2	36.2	36.2	90	33.6	2	8	248	0.00	29.574 
22:40	36.2	36.2	36.2	90	33.6	3	6	270	0.00	29.574 
22:45	36.3	36.3	36.3	89	33.4	2	6	248	0.00	29.574 
22:50	36.3	36.3	36.3	89	33.4	3	9	248	0.00	29.574 
22:55	36.3	36.3	36.3	89	33.4	2	6	270	0.00	29.574 
23:00	36.3	36.3	36.3	90	33.7	2	5	248	0.00	29.582 
23:05	36.3	36.3	36.3	90	33.7	1	4	248	0.00	29.582 
23:10	36.3	36.3	36.3	90	33.7	1	4	248	0.00	29.582 
23:15	36.3	36.3	36.3	90	33.7	2	7	248	0.00	29.585 
23:20	36.3	36.3	36.3	90	33.7	2	6	248	0.00	29.585 
23:25	36.5	36.5	36.5	90	33.9	1	5	248	0.00	29.585 
23:30	36.5	36.5	36.5	90	33.9	2	5	248	0.00	29.584 
23:35	36.5	36.5	36.5	90	33.9	2	6	248	0.00	29.584 
23:40	36.5	36.5	36.5	90	33.9	2	5	270	0.00	29.584 
23:45	36.5	36.5	36.5	90	33.9	2	7	248	0.00	29.591 
23:50	36.5	36.5	36.5	89	33.6	2	6	248	0.00	29.591 
23:55	36.6	36.6	36.6	89	33.7	2	10	270	0.00	29.591 

CoCoRaHS
IN-AL-39
A2 Web Hosting
Creative Commons License
GoDaddy
search engine by freefind advanced

loaded 2018-11-15 15:42:58 • last modified 2010-11-18 10:43:29
Privacy PolicyDisclaimer
• wx.awcolley.com is powered by PmWiki v.2002016 •
• all content (unless otherwise noted) © 2018 A W Colley